• en Suisse
  • Liste des pays
  • À 7 jours
  • Température de l'eau
  • Carte satellitaire
  • Carte météo
  • Widgets météo
  • user-avatar
    Se connecter

    Météo par heure à Novye Zasimovichi

    Ce jour, 21 Septembre, Vendredi

    Heure Température Précipitation Vent Pression Humidité
    00:00 +18°C° 0 mm 2 m/s 748 mmHg 70%
    01:00 +18°C° 0 mm 2 m/s 748 mmHg 71%
    02:00 +17°C° 0 mm 2 m/s 748 mmHg 72%
    03:00 +17°C° 0 mm 2 m/s 748 mmHg 74%
    04:00 +17°C° 0 mm 2 m/s 748 mmHg 75%
    05:00 +16°C° 0 mm 2 m/s 748 mmHg 76%
    06:00 +17°C° 0 mm 2 m/s 748 mmHg 75%
    07:00 +18°C° 0 mm 2 m/s 748 mmHg 73%
    08:00 +18°C° 0 mm 2 m/s 748 mmHg 72%
    09:00 +20°C° 0 mm 3 m/s 748 mmHg 66%
    10:00 +22°C° 0 mm 3 m/s 748 mmHg 61%
    11:00 +25°C° 0 mm 3 m/s 748 mmHg 55%
    12:00 +25°C° 0 mm 4 m/s 748 mmHg 52%
    13:00 +26°C° 0 mm 4 m/s 747 mmHg 49%
    14:00 +27°C° 0 mm 4 m/s 747 mmHg 46%
    15:00 +26°C° 0 mm 4 m/s 746 mmHg 49%
    16:00 +26°C° 0 mm 4 m/s 746 mmHg 52%
    17:00 +25°C° 0 mm 3 m/s 745 mmHg 55%
    18:00 +24°C° 0 mm 3 m/s 745 mmHg 60%
    19:00 +21°C° 0 mm 3 m/s 745 mmHg 65%
    20:00 +20°C° 0 mm 4 m/s 744 mmHg 70%
    21:00 +20°C° 0 mm 4 m/s 744 mmHg 71%
    22:00 +19°C° 0 mm 4 m/s 744 mmHg 71%
    23:00 +19°C° 0 mm 5 m/s 743 mmHg 72%

    Demain, 22 Septembre, Samedi

    Heure Température Précipitation Vent Pression Humidité
    00:00 +19°C° 0 mm 5 m/s 743 mmHg 71%
    01:00 +19°C° 0 mm 5 m/s 743 mmHg 71%
    02:00 +19°C° 0 mm 5 m/s 742 mmHg 70%
    03:00 +17°C° 0 mm 5 m/s 742 mmHg 71%
    04:00 +18°C° 0 mm 4 m/s 742 mmHg 71%
    05:00 +17°C° 0 mm 4 m/s 742 mmHg 72%
    06:00 +15°C° 0.4 mm 5 m/s 743 mmHg 76%
    07:00 +14°C° 0.4 mm 5 m/s 744 mmHg 80%
    08:00 +14°C° 0.4 mm 6 m/s 745 mmHg 83%
    09:00 +13°C° 0.3 mm 5 m/s 745 mmHg 82%
    10:00 +13°C° 0.3 mm 5 m/s 746 mmHg 81%
    11:00 +12°C° 0.3 mm 4 m/s 746 mmHg 79%
    12:00 +13°C° 0.1 mm 4 m/s 747 mmHg 76%
    13:00 +13°C° 0.1 mm 4 m/s 747 mmHg 73%
    14:00 +13°C° 0.1 mm 4 m/s 747 mmHg 71%
    15:00 +13°C° 0.1 mm 4 m/s 747 mmHg 70%
    16:00 +13°C° 0.1 mm 4 m/s 747 mmHg 69%
    17:00 +13°C° 0.1 mm 4 m/s 746 mmHg 68%
    18:00 +12°C° 0.1 mm 4 m/s 746 mmHg 72%
    19:00 +11°C° 0.1 mm 3 m/s 746 mmHg 76%
    20:00 +10°C° 0.1 mm 3 m/s 746 mmHg 80%
    21:00 +10°C° 0 mm 3 m/s 746 mmHg 81%
    22:00 +9°C° 0 mm 3 m/s 746 mmHg 83%
    23:00 +9°C° 0 mm 3 m/s 746 mmHg 84%

    Après-demain, 23 Septembre, Dimanche

    Heure Température Précipitation Vent Pression Humidité
    00:00 +9°C° 0 mm 3 m/s 746 mmHg 84%
    01:00 +8°C° 0 mm 3 m/s 746 mmHg 85%
    02:00 +8°C° 0 mm 3 m/s 746 mmHg 85%
    03:00 +8°C° 0 mm 3 m/s 746 mmHg 86%
    04:00 +7°C° 0 mm 4 m/s 746 mmHg 86%
    05:00 +7°C° 0 mm 4 m/s 746 mmHg 87%
    06:00 +8°C° 0 mm 4 m/s 747 mmHg 84%
    07:00 +8°C° 0 mm 5 m/s 747 mmHg 81%
    08:00 +9°C° 0 mm 6 m/s 747 mmHg 78%
    09:00 +10°C° 0 mm 6 m/s 747 mmHg 71%
    10:00 +11°C° 0 mm 7 m/s 747 mmHg 65%
    11:00 +14°C° 0 mm 7 m/s 747 mmHg 59%
    12:00 +14°C° 0 mm 7 m/s 747 mmHg 56%
    13:00 +15°C° 0 mm 7 m/s 747 mmHg 53%
    14:00 +15°C° 0 mm 7 m/s 747 mmHg 50%
    15:00 +15°C° 0 mm 6 m/s 747 mmHg 52%
    16:00 +15°C° 0 mm 5 m/s 747 mmHg 53%
    17:00 +15°C° 0 mm 4 m/s 747 mmHg 55%
    18:00 +13°C° 0 mm 4 m/s 747 mmHg 57%
    19:00 +12°C° 0 mm 3 m/s 747 mmHg 58%
    20:00 +11°C° 0 mm 3 m/s 747 mmHg 60%
    21:00 +11°C° 0 mm 3 m/s 746 mmHg 60%
    22:00 +10°C° 0 mm 3 m/s 746 mmHg 60%
    23:00 +10°C° 0 mm 2 m/s 746 mmHg 60%

    24 Septembre, Lundi

    Heure Température Précipitation Vent Pression Humidité
    00:00 +10°C° 0 mm 3 m/s 745 mmHg 60%
    01:00 +10°C° 0 mm 3 m/s 744 mmHg 60%
    02:00 +11°C° 0 mm 3 m/s 743 mmHg 60%
    03:00 +10°C° 0.7 mm 4 m/s 742 mmHg 69%
    04:00 +9°C° 0.7 mm 5 m/s 740 mmHg 78%
    05:00 +9°C° 0.7 mm 5 m/s 739 mmHg 86%
    06:00 +9°C° 4.5 mm 6 m/s 737 mmHg 88%
    07:00 +9°C° 4.5 mm 7 m/s 736 mmHg 90%
    08:00 +9°C° 4.5 mm 7 m/s 734 mmHg 92%
    09:00 +10°C° 3.8 mm 7 m/s 733 mmHg 92%
    10:00 +11°C° 3.8 mm 8 m/s 731 mmHg 91%
    11:00 +12°C° 3.8 mm 8 m/s 730 mmHg 90%
    12:00 +13°C° 0.5 mm 8 m/s 729 mmHg 86%
    13:00 +15°C° 0.5 mm 9 m/s 728 mmHg 81%
    14:00 +17°C° 0.5 mm 9 m/s 727 mmHg 77%
    15:00 +15°C° 1 mm 8 m/s 726 mmHg 79%
    16:00 +13°C° 1 mm 8 m/s 726 mmHg 81%
    17:00 +12°C° 1 mm 7 m/s 726 mmHg 83%
    18:00 +11°C° 0.4 mm 8 m/s 727 mmHg 84%
    19:00 +8°C° 0.4 mm 10 m/s 728 mmHg 84%
    20:00 +7°C° 0.4 mm 11 m/s 729 mmHg 85%
    21:00 +7°C° 1 mm 12 m/s 730 mmHg 84%
    22:00 +5°C° 1 mm 12 m/s 732 mmHg 84%
    23:00 +5°C° 1 mm 13 m/s 733 mmHg 83%

    25 Septembre, Mardi

    Heure Température Précipitation Vent Pression Humidité
    00:00 +5°C° 0.7 mm 13 m/s 735 mmHg 82%
    01:00 +5°C° 0.7 mm 13 m/s 736 mmHg 81%
    02:00 +5°C° 0.7 mm 12 m/s 738 mmHg 80%
    03:00 +4°C° 0.2 mm 12 m/s 739 mmHg 79%
    04:00 +4°C° 0.2 mm 11 m/s 740 mmHg 78%
    05:00 +4°C° 0.2 mm 11 m/s 742 mmHg 77%
    06:00 +4°C° 0 mm 11 m/s 743 mmHg 75%
    07:00 +5°C° 0 mm 10 m/s 744 mmHg 72%
    08:00 +5°C° 0 mm 10 m/s 745 mmHg 70%
    09:00 +6°C° 0 mm 10 m/s 745 mmHg 64%
    10:00 +7°C° 0 mm 11 m/s 746 mmHg 58%
    11:00 +8°C° 0 mm 11 m/s 747 mmHg 52%
    12:00 +9°C° 0 mm 11 m/s 747 mmHg 51%
    13:00 +9°C° 0 mm 10 m/s 748 mmHg 49%
    14:00 +11°C° 0 mm 10 m/s 748 mmHg 47%
    15:00 +11°C° 0 mm 9 m/s 748 mmHg 50%
    16:00 +10°C° 0 mm 7 m/s 748 mmHg 53%
    17:00 +10°C° 0 mm 6 m/s 748 mmHg 56%
    18:00 +9°C° 0 mm 5 m/s 748 mmHg 59%
    19:00 +8°C° 0 mm 5 m/s 747 mmHg 62%
    20:00 +7°C° 0 mm 5 m/s 747 mmHg 64%
    21:00 +7°C° 1.3 mm 5 m/s 746 mmHg 73%
    22:00 +7°C° 1.3 mm 5 m/s 746 mmHg 81%
    23:00 +7°C° 1.3 mm 6 m/s 746 mmHg 89%

    26 Septembre, Mercredi

    Heure Température Précipitation Vent Pression Humidité
    00:00 +6°C° 0.2 mm 5 m/s 745 mmHg 89%
    01:00 +6°C° 0.2 mm 5 m/s 745 mmHg 89%
    02:00 +6°C° 0.2 mm 4 m/s 745 mmHg 89%
    03:00 +6°C° 0.5 mm 4 m/s 746 mmHg 90%
    04:00 +6°C° 0.5 mm 4 m/s 746 mmHg 91%
    05:00 +6°C° 0.5 mm 4 m/s 747 mmHg 92%
    06:00 +6°C° 0 mm 4 m/s 748 mmHg 89%
    07:00 +6°C° 0 mm 4 m/s 749 mmHg 87%
    08:00 +6°C° 0 mm 4 m/s 750 mmHg 85%
    09:00 +7°C° 0 mm 4 m/s 750 mmHg 78%
    10:00 +8°C° 0 mm 4 m/s 751 mmHg 71%
    11:00 +11°C° 0 mm 4 m/s 752 mmHg 64%
    12:00 +10°C° 0 mm 5 m/s 752 mmHg 63%
    13:00 +12°C° 0 mm 5 m/s 752 mmHg 61%
    14:00 +12°C° 0 mm 5 m/s 753 mmHg 59%
    15:00 +12°C° 0.2 mm 5 m/s 753 mmHg 63%
    16:00 +12°C° 0.2 mm 4 m/s 753 mmHg 67%
    17:00 +11°C° 0.2 mm 4 m/s 753 mmHg 71%
    18:00 +10°C° 0.2 mm 3 m/s 753 mmHg 75%
    19:00 +9°C° 0.2 mm 3 m/s 754 mmHg 80%
    20:00 +8°C° 0.2 mm 3 m/s 754 mmHg 85%
    21:00 +8°C° 0 mm 2 m/s 755 mmHg 86%
    22:00 +7°C° 0 mm 2 m/s 755 mmHg 88%
    23:00 +7°C° 0 mm 2 m/s 755 mmHg 89%
    Voir plus